Hourly Data Report for July 01, 2021

CAPE RACE (AUT)
NEWFOUNDLAND
Current Station Operator: ECCC - MSC

46°39'36.000" N
53°04'35.000" W
26.50 m
8401000
71800
WRA

Download Data

Hourly Data (July 2021)
Hourly Data Report for July 1, 2021
TIME
LST
Temp Definition
°C
Dew Point Definition
°C
Rel Hum Definition
%
Precip. Amount Definition
mm

Wind Dir Definition
10's deg

Wind Spd Definition
km/h
Visibility Definition
km
Stn Press Definition
kPa
Hmdx Definition


Wind Chill Definition


Weather Definition


00:30 9.3 LegendMM LegendMM 0.0 21 9   101.15     LegendNANA
01:30 9.8 LegendMM LegendMM 0.0 24 4   101.11     LegendNANA
02:30 8.7 LegendMM LegendMM 0.0 0 1   101.06     LegendNANA
03:30 8.7 LegendMM LegendMM 0.0 3 3   101.03     LegendNANA
04:30 9.4 LegendMM LegendMM 0.0 14 2   101.00     LegendNANA
05:30 9.0 LegendMM LegendMM 0.0 5 3   100.98     LegendNANA
06:30 9.6 LegendMM LegendMM 0.0 8 3   100.95     LegendNANA
07:30 9.8 LegendMM LegendMM 0.0 3 7   100.96     LegendNANA
08:30 10.5 LegendMM LegendMM 0.0 5 5   100.96     LegendNANA
09:30 10.5 LegendMM LegendMM 0.0 5 7   100.95     LegendNANA
10:30 10.6 LegendMM LegendMM 0.0 6 12   100.93     LegendNANA
11:30 10.1 LegendMM LegendMM 0.0 6 15   100.86     LegendNANA
12:30 9.7 LegendMM LegendMM 0.0 4 21   100.85     LegendNANA
13:30 9.1 LegendMM LegendMM 0.0 4 23   100.93     LegendNANA
14:30 8.0 LegendMM LegendMM 0.8 6 29   100.85     LegendNANA
15:30 8.0 LegendMM LegendMM 0.0 7 26   100.85     LegendNANA
16:30 8.5 LegendMM LegendMM 0.3 6 26   100.79     LegendNANA
17:30 8.8 LegendMM LegendMM 0.6 4 37   100.72     LegendNANA
18:30 8.3 LegendMM LegendMM 0.0 4 34   100.77     LegendNANA
19:30 8.5 LegendMM LegendMM 0.0 4 41   100.77     LegendNANA
20:30 8.5 LegendMM LegendMM 0.0 4 44   100.81     LegendNANA
21:30 8.2 LegendMM LegendMM 0.3 4 38   100.84     LegendNANA
22:30 8.0 LegendMM LegendMM 0.0 4 34   100.85     LegendNANA
23:30 7.8 LegendMM LegendMM 0.0 4 33   100.86     LegendNANA

Notes on Data Quality.

Legend

  • E = Estimated
  • M = Missing
  • NA = Not Available*
  • [empty] = Indicates an unobserved value
Date modified: